Flag for U.S.A. Weather past 2 weeks in Warminster Township, Pennsylvania, U.S.A.

Now
66 °F

Clear.


Feels Like: 66 °F
Forecast: 65 / 73 °F
Wind: No wind

Location: Doylestown Airport

Current Time: Aug 1, 2014 at 11:16:44 PM

Latest Report: Aug 1, 2014 at 10:54 PM


Visibility: 9 mi

Pressure: 30.18 "Hg

Humidity: 100%

Dew point: 66 °F

Location of Warminster TownshipLocation

Historic Weather in Warminster Township — Graph

°F

Warminster Township temperature yesterday

Maximum temperature yesterday: 81 °F (at 1:54 PM)
Minimum temperature yesterday: 57 °F (at 4:54 AM)
Average temperature yesterday: 70 °F

Past Weeks' High & Low Weather Summary

 TemperatureHumidityPressure
High89 °F (Jul 23, 3:54 PM)100% (Jul 21, 1:54 AM)30.23 "Hg (Jul 21, 1:54 AM)
Low54 °F (Jul 30, 5:54 AM)40% (Jul 18, 12:54 PM)29.52 "Hg (Jul 28, 4:54 AM)
Average70 °F74%30.00 "Hg
* Reported Jul 17 9:54 PM — Aug 1 9:54 PM, Warminster Township, Weather by CustomWeather, © 2014

Note: Actual official high and low records may vary slightly from our data, if they occured in-between our weather recording intervals... More about our weather records

Advertising

Warminster Township weather history for previous 24 hours

 ConditionsComfort  
Time TempWeatherWind HumidityBarometerVisibility
9:54 PM
Aug 1
66 °FClear.No wind100%30.19 "Hg9 mi
8:54 PM67 °FPassing clouds.No wind100%30.18 "Hg10 mi
7:54 PM67 °FOvercast.No wind100%30.18 "Hg9 mi
6:54 PM67 °FMostly cloudy.No wind97%30.18 "Hg10 mi
5:54 PM68 °FOvercast.3 mph96%30.19 "Hg10 mi
5:03 PM68 °FLight rain. Overcast.5 mph96%30.21 "Hg10 mi
4:54 PM68 °FThundershowers. More clouds than sun.3 mph96%30.20 "Hg10 mi
3:54 PM71 °FMore clouds than sun.N/A84%30.17 "Hg10 mi
2:54 PM74 °FSunny.No wind88%30.16 "Hg10 mi
1:54 PM70 °FThundershowers. More clouds than sun.7 mph93%30.18 "Hg10 mi
12:54 PM78 °FCloudy.6 mph71%30.16 "Hg10 mi
12:04 PM78 °FBroken clouds.3 mph71%30.20 "Hg10 mi
11:54 AM78 °FPartly sunny.6 mph71%30.18 "Hg10 mi
10:54 AM78 °FPassing clouds.No wind74%30.18 "Hg10 mi
10:04 AM74 °FScattered clouds.3 mph85%30.19 "Hg10 mi
9:54 AM75 °FPartly sunny.6 mph82%30.18 "Hg10 mi
9:01 AM72 °FScattered clouds.3 mph87%30.19 "Hg10 mi
7:54 AM70 °FSunny.3 mph93%30.18 "Hg10 mi
6:54 AM67 °FOvercast.No wind97%30.16 "Hg10 mi
5:54 AM66 °FOvercast.No wind100%30.15 "Hg8 mi
4:54 AM65 °FClear.No wind100%30.14 "Hg8 mi
3:54 AM67 °FPassing clouds.5 mph97%30.14 "Hg10 mi
2:54 AM67 °FOvercast.6 mph93%30.14 "Hg10 mi
1:54 AM63 °FPassing clouds.No wind100%30.14 "Hg10 mi
12:54 AM65 °FClear.No wind94%30.14 "Hg10 mi
11:54 PM
Jul 31
67 °FClear.No wind85%30.14 "Hg10 mi
Weather by CustomWeather, © 2014

See weather overviewHow to use our weather pages